Location: Unspecified
(0.0000°N, 0.0000°E)
Time: 03:57:53
(UTC+00:00)

Transit 2A - Pass Details

Date: 01 June 2019
Orbit: 593 x 966 km, 66.7° (Epoch: 26 June)

Event Time Altitude Azimuth Distance (km) Brightness Sun altitude
Rises 16:08:18 0° 327° (NNW) 3,156 10.1 25.2°
Reaches altitude 10° 16:10:53 10° 320° (NW) 2,174 9.6 24.6°
Maximum altitude 16:15:25 39° 252° (WSW) 991 7.6 23.6°
Drops below altitude 10° 16:19:39 10° 182° (S) 2,004 8.0 22.6°
Sets 16:21:57 0° 174° (S) 2,879 8.7 22.1°
